This is the latest recevied weather packets stored in our database for station/object KB7STN. If no packets are shown the sender has not sent any weather packets the latest 1 day(s).
| Time | Temp. | Humidity | Pressure | Rain* | Wind** | Luminosity | Snow |
|---|---|---|---|---|---|---|---|
| 1777991237 | 10° C | 63% | 999.8 hPa | 0 mm | 1.34 m/s, 215° | - | - |
| 1777990937 | 10° C | 62% | 999.8 hPa | 0 mm | 1.34 m/s, 202° | - | - |
| 1777990637 | 10° C | 61% | 999.7 hPa | 0 mm | 1.34 m/s, 219° | - | - |
| 1777990337 | 10° C | 59% | 999.7 hPa | 0 mm | 0.89 m/s, 221° | - | - |
| 1777990037 | 10° C | 59% | 999.6 hPa | 0 mm | 0.89 m/s, 221° | - | - |
| 1777989737 | 10° C | 59% | 999.6 hPa | 0 mm | 0.89 m/s, 221° | - | - |
| 1777989437 | 10.56° C | 60% | 999.4 hPa | 0 mm | 0.89 m/s, 221° | - | - |
| 1777989137 | 10.56° C | 61% | 999.3 hPa | 0 mm | 0.89 m/s, 221° | - | - |
| 1777988837 | 10.56° C | 61% | 999.3 hPa | 0 mm | 0.89 m/s, 221° | - | - |
| 1777988537 | 10.56° C | 61% | 999.2 hPa | 0 mm | 0.89 m/s, 221° | - | - |
| 1777988237 | 10.56° C | 63% | 999.1 hPa | 0 mm | 0.89 m/s, 222° | - | - |
| 1777987937 | 10.56° C | 65% | 999.1 hPa | 0 mm | 0.45 m/s, 223° | - | - |
| 1777987637 | 10.56° C | 64% | 998.9 hPa | 0 mm | 0.89 m/s, 223° | - | - |
| 1777987337 | 10.56° C | 64% | 998.8 hPa | 0 mm | 0.89 m/s, 223° | - | - |
| 1777987037 | 10.56° C | 62% | 998.7 hPa | 0 mm | 0.89 m/s, 223° | - | - |
| 1777986737 | 10.56° C | 60% | 998.6 hPa | 0 mm | 0.89 m/s, 223° | - | - |
| 1777986437 | 10.56° C | 59% | 998.5 hPa | 0 mm | 0.45 m/s, 223° | - | - |
| 1777986137 | 11.11° C | 58% | 998.5 hPa | 0 mm | 0.89 m/s, 223° | - | - |
| 1777985837 | 11.11° C | 58% | 998.5 hPa | 0 mm | 0.89 m/s, 223° | - | - |
| 1777985537 | 11.11° C | 55% | 998.4 hPa | 0 mm | 0.89 m/s, 223° | - | - |
| 1777985237 | 11.11° C | 55% | 998.2 hPa | 0 mm | 0.89 m/s, 224° | - | - |
| 1777984937 | 11.11° C | 57% | 998.2 hPa | 0 mm | 0.89 m/s, 224° | - | - |
| 1777984637 | 11.11° C | 59% | 998.1 hPa | 0 mm | 0.89 m/s, 226° | - | - |
| 1777984337 | 11.11° C | 62% | 998 hPa | 0 mm | 0.89 m/s, 227° | - | - |
| 1777984037 | 11.11° C | 63% | 998 hPa | 0 mm | 0.45 m/s, 212° | - | - |
* Rain latest hour (hover to see other rain measurements)
** Current wind speed in m/s (hover to see current wind gust speed)